Location: Canyam�s
(41.5996°N, 2.4450°E)
Time: 07:07:04
(UTC+00:00)

Cosmos 1025 Rocket - Pass Details

Date: 06 June 2020
Orbit: 595 x 617 km, 82.5° (Epoch: 08 July)

Event Time Altitude Azimuth Distance (km) Brightness Sun altitude
Exits shadow 21:30:38 38° 129° (SE) 918 3.4 -18.1°
Maximum altitude 21:31:35 45° 93° (E) 824 3.4 -18.2°
Drops below altitude 10° 21:35:42 10° 21° (NNE) 1,957 6.1 -18.6°
Sets 21:38:00 0° 15° (NNE) 2,869 7.1 -18.8°
